Regional Weather Roundup
Issued by NWS Charleston, SC

Current Version | Previous Version | Graphics & Text | Print | Product List | Glossary On
Versions: 1 2 3 4 5 6 7 8 9 10 11 12 13 14 15 16 17 18 19 20 21 22 23 24 25 26 27 28 29 30 31 32 33 34 35 36 37 38 39 40 41 42 43 44 45 46 47 48 49 50
000
ASUS42 KCHS 182212
RWRCHS

REGIONAL WEATHER ROUNDUP
NATIONAL WEATHER SERVICE CHARLESTON SC
500 PM EST SAT FEB 18 2017

NOTE: "FAIR" INDICATES FEW OR NO CLOUDS BELOW 12,000 FEET WITH NO
SIGNIFICANT WEATHER AND/OR OBSTRUCTIONS TO VISIBILITY.

NOT ALL STATIONS ARE QUALITY CONTROLLED. USE DATA WITH CAUTION...
ESPECIALLY DEWPOINT OBSERVATIONS.

SCZ027-030-031-034>040-042>050-182300-
...SOUTHEAST SOUTH CAROLINA...

CITY           SKY/WX    TMP DP  RH WIND       PRES   REMARKS
N CHARLESTON   CLOUDY    67  44  43 S5        29.95F
WATERFRONT PRK   N/A     65  53  65 VRB3      29.95F
MOUNT PLEASANT FAIR      66  52  59 CALM      29.96F
JOHNS ISLAND   FAIR      63  54  72 S7        29.96F
PINOPOLIS        N/A     66  45  45 CALM      29.86F
MONCKS CORNER  FAIR      64  41  42 SW3       29.95F
SUMMERVILLE    FAIR      66  41  39 CALM      29.95F
BEAUFORT MCAS  CLOUDY    65  53  65 E3        29.93F
BEAUFORT ARPT  MOCLDY    64  50  59 CALM      29.93F
HILTON HEAD IS CLOUDY    64  52  63 CALM      29.95F
WALTERBORO     CLOUDY    64  41  42 CALM      29.94F
ALLENDALE      CLOUDY    61  48  63 CALM      29.95S

...SOUTHERN MIDLANDS AND PEE DEE...

CITY           SKY/WX    TMP DP  RH WIND       PRES   REMARKS
GEORGETOWN     FAIR      64  50  59 S5        29.97F
KINGSTREE      FAIR      64  36  34 CALM      29.95F
ORANGEBURG     CLOUDY    64  41  42 SW6       29.95F
BARNWELL       DRIZZLE   61  54  77 CALM      29.95F
AIKEN          LGT RAIN  52  50  93 W6        30.00S
MANNING        FAIR      61  43  51 MISG      29.94F
COLUMBIA       LGT RAIN  59  47  64 NW7       29.96R
SUMTER         PTSUNNY   65  38  37 W6        29.92F
FLORENCE       PTSUNNY   66  38  35 SW7       29.95R
MYRTLE BEACH   CLOUDY    64  48  55 S12       29.97S
N MYRTLE BEACH CLOUDY    61  50  67 SW12      29.95F

$$

GAZ063-065-086>088-099>101-113>116-118-119-134>141-150-182300-
...SOUTHEAST GEORGIA...

CITY           SKY/WX    TMP DP  RH WIND       PRES   REMARKS
SAVANNAH ARPT  PTSUNNY   69  44  40 S6        29.93F
HUNTER AAF     PTSUNNY   67  55  65 SE8       29.90F
FORT STEWART   CLOUDY    67  50  53 CALM      29.91R
STATESBORO     CLOUDY    66  47  50 N5        29.95S
SYLVANIA       CLOUDY   N/A N/A N/A NW6       29.96R
CLAXTON        FAIR      64  49  57 CALM      29.94F

...CSRA...CENTRAL AND FAR SOUTHEAST GEORGIA...

CITY           SKY/WX    TMP DP  RH WIND       PRES   REMARKS
THOMSON        PTSUNNY   55  54  95 CALM      30.00F
AUGUSTA-BUSH   CLOUDY    58  51  78 NW9       29.97S
AUGUSTA-DANIEL LGT RAIN  55  50  83 NW7       29.98S
SWAINSBORO     FAIR      61  46  59 CALM      29.96F
VIDALIA        SUNNY     63  52  67 CALM      29.95S
EASTMAN        FAIR      65  40  39 W3        29.96S
HAZLEHURST     FAIR      64  53  67 CALM      29.92F
ALMA           SUNNY     67  54  63 S3        29.92F
WAYCROSS       SUNNY     71  61  70 SW7       29.92S
JESUP          FAIR      70  50  49 S6        29.92F
BAXLEY         FAIR      68  55  64 SW3       29.92F
BRUNSWICK      CLOUDY    72  55  56 SE8       29.93S
SAINT SIMONS   CLOUDY    67  57  70 SE7       29.92S

$$

SCZ027-028-034-036>038-045-046-048>050-GAZ119-141-182300-
...LAKE AND SUPPLEMENTAL COASTAL OBSERVATIONS...

STATION/POSITION TIME  TEMP    WIND        PRES    WAVE   SWELL
                       AIR SEA DIR/SP/G            HT/PER HT/PER/DIR
                 (UTC) (F)     (DEG/KT/KT) (MB)    (FT/S) (FT/S/D)
WINYAH BAY       NOT AVBL
LAKE MURRAY      2120   55     280/  9/ 13 1014.2
ACE BASIN NERRS  2045   67        CALM     1014.0
FORT PULASKI     2148   63 60  140/  3/  4 1013.8S
SAPELO ISLAND    2100   67     130/  5     1013.0

$$

ANZ835-935-AMZ111-154-330-350-352-354-370-450-454-472-182300-
...C-MAN AND BUOY OBSERVATIONS...

STATION/POSITION TIME  TEMP    WIND        PRES    WAVE   SWELL
                       AIR SEA DIR/SP/G            HT/PER HT/PER/DIR
                 (UTC) (F)     (DEG/KT/KT) (MB)    (FT/S) (FT/S/D)
BUOY 41004       2150   66 69  230/ 12/ 16 1014.6F   2/ 9   2/120/ 9
BUOY 41008       2150   63 62  140/ 10/ 12 1012.8F   1/ 9
FOLLY BEACH CMAN 2100   60     190/  7/  8 1015.7F
CAPERS NEARSHORE NOT AVBL
FRIPP NEARSHORE  2108   60 60  190/  6/  8 1014.3F


STATION/POSITION TIME  TEMP    WIND        PRES    WAVE   SWELL
                       AIR SEA DIR/SP/G            HT/PER HT/PER/DIR
                 (UTC) (F)     (DEG/KT/KT) (MB)    (FT/S) (FT/S/D)
5E ST. MARYS GA  2130      64                N/A     2/ 4
FRYING PAN BUOY  2150   65 64  230/ 14/ 16 1015.3F   3/ 4   2/110/10
BUOY 41025       2150   67 69  220/ 21/ 25 1013.1F   4/ 5   2/150/ 7
CAPE LOOKOUT NC  2100   62     210/ 12/ 16 1013.7R
BUOY 41002       2150   70 71  220/ 17/ 19 1017.2R   4/ 6   2/360/10
BUOY 41010       NOT AVBL
ST AUGUSTINE FL  2200   68 66  160/ 10/ 10 1014.4R


$$




USA.gov is the U.S. government's official web portal to all federal, state and local government web resources and services.